San Jose, Costa Rica

1:19 PM CST on April 25, 2017 (GMT -0600)
Juan Santamaria International

Weather History for MROC - February, 2013

Change the Weather History Date:

Sunday, February 24, 2013

  Actual Average Record
Temperature  
Mean Temperature 76 °F -  
Max Temperature 87 °F 83 °F 89 °F (2005)
Min Temperature 64 °F 64 °F 60 °F (2012)
Cooling Degree Days 10    
Growing Degree Days 26 (Base 50)    
Moisture  
Dew Point 61 °F    
Average Humidity 62    
Maximum Humidity 78    
Minimum Humidity 28    
Precipitation  
Precipitation 0.00 in 0.02 in - ()
Sea Level Pressure  
Sea Level Pressure 29.91 in    
Wind  
Wind Speed 7 mph ()    
Max Wind Speed 15 mph    
Max Gust Speed 24 mph    
Visibility 8.0 miles    
Events      
Averages and records for this station are not official NWS values.
T = Trace of Precipitation, MM = Missing Value Source: Averaged Metar Reports

Daily Weather History Graph

Daily Weather History Graph

Search for Another Location

Airport or City:

Trip Planner

Search our weather history database for the weather conditions in past years. The results will help you decide how hot, cold, wet, or windy it might be!

Date:

Astronomy

Feb. 24, 2013 Rise Set
Actual Time 5:53 AM CST 5:46 PM CST
Civil Twilight 5:32 AM CST 6:08 PM CST
Nautical Twilight 5:07 AM CST 6:32 PM CST
Astronomical Twilight 4:42 AM CST 6:57 PM CST
Moon 4:56 PM CST (2/24) 4:45 AM CST (2/24)
Length of Visible Light 12h 36m
Length of Day
11h 53m
Waxing Gibbous, 99% of the Moon is Illuminated
Feb 24
Waxing Gibbous
Feb 25
Full
Mar 4
Last Quarter
Mar 11
New
Mar 19
First Quarter

Hourly Weather History & Observations

Time (CST) Temp. Heat Index Dew Point Humidity Pressure Visibility Wind Dir Wind Speed Gust Speed Precip Events Conditions
12:00 AM 70 °F - 60 °F 63% 29.81 in 12 mi East 6.9 mph - -   Scattered Clouds
12:00 AM 69.8 °F - 60.8 °F 73% 29.98 in - East 6.9 mph - N/A   Clear
1:00 AM 69.8 °F - 60.8 °F 73% 29.96 in - East 5.8 mph - N/A   Clear
2:00 AM 68.0 °F - 59.0 °F 73% 29.95 in - ENE 3.5 mph - N/A   Clear
3:00 AM 66 °F - 59 °F 70% 29.77 in 12 mi ENE 6.9 mph - -  
3:00 AM 66.2 °F - 59.0 °F 78% 29.95 in - ENE 6.9 mph - N/A   Clear
4:00 AM 66.2 °F - 59.0 °F 78% 29.95 in - ENE 9.2 mph - N/A   Clear
5:00 AM 66.2 °F - 59.0 °F 78% 29.96 in - NNE 9.2 mph - N/A   Clear
6:00 AM 68 °F - 59 °F 65% 29.82 in 12 mi NE 5.8 mph - -   Scattered Clouds
6:00 AM 68.0 °F - 59.0 °F 73% 29.98 in 6.2 mi NE 5.8 mph - N/A   Unknown
7:00 AM 73.4 °F - 60.8 °F 65% 29.98 in 6.2 mi East 8.1 mph - N/A   Partly Cloudy
8:00 AM 75.2 °F - 60.8 °F 61% 29.99 in 6.2 mi East 12.7 mph 24.2 mph N/A   Partly Cloudy
9:00 AM 78 °F - 61 °F 47% 29.82 in 12 mi East 11.5 mph - -   Scattered Clouds
9:00 AM 78.8 °F - 60.8 °F 54% 30.01 in 6.2 mi East 11.5 mph - N/A   Partly Cloudy
10:00 AM 82.4 °F 82.5 °F 59.0 °F 45% 30.00 in 6.2 mi East 11.5 mph - N/A   Partly Cloudy
11:00 AM 86.0 °F 85.4 °F 59.0 °F 40% 29.97 in 6.2 mi East 10.4 mph - N/A   Partly Cloudy
12:00 PM 86 °F - 58 °F 28% 29.77 in 12 mi ESE 10.4 mph - -   Scattered Clouds
12:00 PM 86.0 °F 95.1 °F 75.2 °F 70% 29.95 in 6.2 mi ESE 10.4 mph - N/A   Partly Cloudy
1:00 PM 86.0 °F 85.4 °F 59.0 °F 40% 29.93 in 6.2 mi ESE 10.4 mph - N/A   Scattered Clouds
2:00 PM 82.4 °F 83.4 °F 62.6 °F 51% 29.90 in 6.2 mi SW 8.1 mph - N/A   Scattered Clouds
3:00 PM 81 °F - 67 °F 54% 29.75 in 12 mi WSW 5.8 mph - -   Partly Cloudy
3:00 PM 80.6 °F 81.8 °F 62.6 °F 54% 29.89 in 6.2 mi WSW 5.8 mph - N/A   Scattered Clouds
4:00 PM 78.8 °F - 62.6 °F 57% 29.88 in 6.2 mi SE 11.5 mph - N/A   Scattered Clouds
5:00 PM 75.2 °F - 62.6 °F 65% 29.88 in 6.2 mi SE 12.7 mph - N/A   Scattered Clouds
6:00 PM 74 °F - 62 °F 58% 29.74 in 12 mi ESE 15.0 mph - -   Overcast
6:00 PM 73.4 °F - 62.6 °F 69% 29.91 in 6.2 mi ESE 15.0 mph - N/A   Mostly Cloudy
7:00 PM 73.4 °F - 60.8 °F 65% 29.93 in 6.2 mi East 6.9 mph - N/A   Mostly Cloudy
8:00 PM 71.6 °F - 60.8 °F 69% 29.96 in 6.2 mi East 9.2 mph - N/A   Scattered Clouds
9:00 PM 72 °F - 62 °F 62% 29.79 in 12 mi ENE 9.2 mph - -   Partly Cloudy
9:00 PM 71.6 °F - 60.8 °F 69% 29.98 in 6.2 mi ENE 9.2 mph - N/A   Scattered Clouds
10:00 PM 71.6 °F - 60.8 °F 69% 29.99 in 6.2 mi ENE 5.8 mph - N/A   Scattered Clouds
11:00 PM 71.6 °F - 60.8 °F 69% 29.98 in 6.2 mi East 6.9 mph - N/A   Scattered Clouds